Regional Weather Roundup
Issued by NWS

Home | Current Version | Previous Version | Text Only | Print | Product List | Glossary On
Versions: 1 2 3 4 5 6 7 8 9 10 11 12 13 14 15 16 17 18 19 20 21 22 23 24 25 26 27 28 29 30 31 32 33 34 35 36 37 38 39 40 41 42 43 44 45 46 47 48 49 50
000
ASUS44 KOUN 301510
RWROK

WEATHER ROUNDUP FOR OKLAHOMA
NATIONAL WEATHER SERVICE NORMAN OK
1000 AM CDT SAT APR 30 2016

NOTE: "FAIR" INDICATES FEW OR NO CLOUDS BELOW 12,000 FEET WITH NO
      SIGNIFICANT WEATHER AND/OR OBSTRUCTIONS TO VISIBILITY.

OKZ001>007-009>012-014-015-017-301600-
NORTHWEST OKLAHOMA AND THE PANHANDLE

CITY           SKY/WX    TMP DP  RH WIND       PRES   REMARKS
GAGE           PTSUNNY   49  39  68 NW12      29.86R
GUYMON         MOSUNNY   47  36  65 NW15      29.85R
ENID/WOODRING  PTSUNNY   50  46  87 NW12G18   29.79S
$$

OKZ016-021>023-033>039-044-045-301600-
SOUTHWEST OKLAHOMA

CITY           SKY/WX    TMP DP  RH WIND       PRES   REMARKS
LAWTON/REGL    SUNNY     58  46  64 N8        29.84R
LAWTON/FT SILL SUNNY     57  47  70 NW9       29.82R
FREDERICK      MOSUNNY   55  45  68 NW8       29.84R
CLINTON        SUNNY     51  41  68 NW17      29.85R
HOBART         SUNNY     54  44  69 NW9       29.85R
ALTUS AFB      SUNNY     53  42  64 NW6       29.87R
$$

OKZ018>020-024>031-301600-
CENTRAL OKLAHOMA

CITY           SKY/WX    TMP DP  RH WIND       PRES   REMARKS
OKLAHOMA CITY  MOSUNNY   56  47  71 NW12      29.81R
OKC/WILEY POST SUNNY     54  46  74 NW9       29.81R
OKC/TINKER AFB MOSUNNY   55  46  71 W3        29.81R
STILLWATER     CLOUDY    51  47  86 NW9       29.80R
GUTHRIE        CLOUDY    50  44  80 NW10      29.81R
$$

OKZ008-013-054>072-301600-
NORTHEAST OKLAHOMA

CITY           SKY/WX    TMP DP  RH WIND       PRES   REMARKS
TULSA          PTSUNNY   59  52  77 W12       29.76R
TULSA/JONES    PTSUNNY   60  51  72 VRB5      29.78S
PONCA CITY     CLOUDY    51  46  83 W8G22     29.77S
BARTLESVILLE   CLOUDY    57  50  77 W7        29.77S
MUSKOGEE       CLOUDY    60  57  89 W13       29.78S
$$

OKZ032-040>043-046>053-073>077-301600-
SOUTH CENTRAL/SOUTHEAST OKLAHOMA

CITY           SKY/WX    TMP DP  RH WIND       PRES   REMARKS
ARDMORE/DWNTWN CLOUDY    55  52  88 N5        29.82R
MCALESTER      CLOUDY    59  57  93 NW9       29.78F FOG
$$





USA.gov is the U.S. government's official web portal to all federal, state and local government web resources and services.